STARLINK-5725, 55605

Orbit data source: Space-Track

STARLINK-5725, 55605 is a payload satellite owned by SpaceX/Seattle (US) in LEO that was launched on Sun, 12 Feb 2023 UTC via an FALCON 9 launch vehicle from the Air Force Eastern Test Range (AFETR). Payload-class satellites include a variety of spacecraft equipped with specific instruments for various scientific and technological missions. These include communications satellites like Starlink; space stations such as the ISS; scientific satellites like the Hubble; Earth observation satellites from companies like Planet Labs, Umbra, and HawkEye 360; GPS; miniature CubeSats for education and research; and military/defense satellites.

Loading next visibility...
Identifier
55605, 2023-020AN
Orbit
LEO
Country
Flag of USUS
Related business
Manufacturer
SpaceX/Seattle
Mission
Operational Commercial Communications
Bus & Motor
STARLINK, Unknown motor
Mass
305 kg wet, ~290 kg dry
Launch date (UTC)
2023-02-12 (3 years ago)
Launch vehicle
FALCON 9
Launch site
Air Force Eastern Test Range (AFETR)
Object type
Payload
Rocket body
Debris
Shape & HBR
Box + 1 Pan, 4.4 m
Radar Cross Section
13.562 m², Large (>1 m²)

Expand to show TLE details & history
Last TLE update: 16 hours ago

TLE from 16 hours ago
0 STARLINK-5725
1 55605U 23020AN  25260.23200769 -.00001123  00000-0 -68051-4 0  9995
2 55605  43.0024 214.4539 0001068 266.1427  93.9293 15.02530951142976
Epoch: 2025-09-17T05:34Z
TLE epoch observation values (Epoch: 2025-09-17T05:34:05.464Z)
Latitude
-0.00003°
Longitude
134.52018°
Altitude
558.924 km
Speed
7.584 km/s
True Right ascension
14h 17m 48s
True Declination
0° 00' 00"
Sunlit
Object was in daylight at epoch
Visualization orbit readout
Latitude
Unknown
Longitude
Unknown
Altitude
Unknown
Speed
Unknown
Apparent Right ascension
Unknown
Apparent Declination
Unknown
Sunlit
N/A
Visualization observer readout
Local Sidereal Time
14:10:34
Azimuth
Unknown
Elevation
Unknown
Doppler factor
Unknown
Orbital elements
Apogee altitude
561.76 km
Perigee altitude
560.278 km
Semi-major axis
6,939.156 km
Eccentricity
0.00011
Inclination
43.0024°
RAAN
214.4539°
Arg. of periapsis
266.1427°
True anomaly
93.94151°
Mean anomaly
93.9293°
Eccentric anomaly
93.9354°
Mean motion
3.75477 °/min
Orbital period
95.88 mins
BSTAR
-0.000068051
Loading maneuver chart data...
Computing Atmospheric mass density...
Loading historical data...
Loading historical data...
Loading historical data...
Loading historical data...
Loading historical data...
Loading historical data...
Loading historical data...

Documentation

Showing up to 5 results
|